This is the latest recevied weather packets stored in our database for station/object N7MLR. If no packets are shown the sender has not sent any weather packets the latest 10 day(s).
| Time | Temp. | Humidity | Pressure | Rain* | Wind** | Luminosity | Snow |
|---|---|---|---|---|---|---|---|
| 1777684655 | 11.67° C | 91% | 1015.5 hPa | 0 mm | - | 0 W/m² | - |
| 1777684351 | 11.67° C | 91% | 1015.2 hPa | 0 mm | - | 0 W/m² | - |
| 1777684049 | 11.67° C | 92% | 1015.2 hPa | 0 mm | - | 1 W/m² | - |
| 1777683744 | 11.67° C | 92% | 1015 hPa | 0 mm | - | 4 W/m² | - |
| 1777683442 | 12.22° C | 92% | 1015 hPa | 0 mm | - | 8 W/m² | - |
| 1777683140 | 12.22° C | 92% | 1014.7 hPa | 0 mm | - | 12 W/m² | - |
| 1777682836 | 12.22° C | 92% | 1014.9 hPa | 0 mm | - | 18 W/m² | - |
| 1777682533 | 12.78° C | 93% | 1014.4 hPa | 0 mm | - | 22 W/m² | - |
| 1777682231 | 12.78° C | 94% | 1014.6 hPa | 0 mm | - | 26 W/m² | - |
| 1777681928 | 12.22° C | 95% | 1014.5 hPa | 0 mm | - | 37 W/m² | - |
| 1777681623 | 12.78° C | 96% | 1014.2 hPa | 0 mm | - | 12 W/m² | - |
| 1777681321 | 12.78° C | 96% | 1014 hPa | 0 mm | - | 11 W/m² | - |
| 1777681018 | 12.78° C | 96% | 1014 hPa | 0 mm | - | 18 W/m² | - |
| 1777680716 | 12.78° C | 97% | 1013.8 hPa | 0 mm | - | 22 W/m² | - |
| 1777680413 | 12.78° C | 97% | 1013.7 hPa | 0 mm | - | 33 W/m² | - |
| 1777680111 | 12.78° C | 98% | 1013.5 hPa | 0 mm | - | 87 W/m² | - |
| 1777679806 | 12.78° C | 98% | 1013.3 hPa | 0 mm | - | 89 W/m² | - |
| 1777679503 | 12.78° C | 98% | 1013.5 hPa | 0 mm | - | 69 W/m² | - |
| 1777679198 | 12.78° C | 99% | 1013.3 hPa | 0 mm | - | 48 W/m² | - |
| 1777678896 | 12.78° C | 99% | 1013.2 hPa | 0 mm | - | 72 W/m² | - |
| 1777678594 | 12.78° C | 99% | 1013.1 hPa | 0 mm | - | 72 W/m² | - |
| 1777678291 | 12.78° C | 99% | 1013 hPa | 0 mm | - | 75 W/m² | - |
| 1777677987 | 12.78° C | 99% | 1012.7 hPa | 0 mm | - | 76 W/m² | - |
| 1777677685 | 12.78° C | 99% | 1012.6 hPa | 0 mm | - | 78 W/m² | - |
| 1777677382 | 12.78° C | 99% | 1012.4 hPa | 0 mm | - | 62 W/m² | - |
* Rain latest hour (hover to see other rain measurements)
** Current wind speed in m/s (hover to see current wind gust speed)